Coleman, TX

9:28 AM CDT on June 24, 2017 (GMT -0500)
Coleman Municipal

Weather History for KCOM - November, 2012

Change the Weather History Date:

Tuesday, November 27, 2012

  Actual Average (KABI) Record (KABI)
Temperature  
Mean Temperature 46 °F -  
Max Temperature 57 °F 60 °F 88 °F (1949)
Min Temperature 34 °F 38 °F 13 °F (1887)
Degree Days  
Heating Degree Days 20    
Moisture  
Dew Point 27 °F    
Average Humidity 53    
Maximum Humidity 78    
Minimum Humidity 34    
Precipitation  
Precipitation 0.00 in - - ()
Sea Level Pressure  
Sea Level Pressure 30.36 in    
Wind  
Wind Speed 10 mph (North)    
Max Wind Speed 18 mph    
Max Gust Speed 24 mph    
Visibility 10 miles    
Events      
Averages and records for this station are not official NWS values.
T = Trace of Precipitation, MM = Missing Value Source: NWS Daily Summary

Daily Weather History Graph

Daily Weather History Graph

Search for Another Location

Airport or City:

Trip Planner

Search our weather history database for the weather conditions in past years. The results will help you decide how hot, cold, wet, or windy it might be!

Date:

Astronomy

Nov. 27, 2012 Rise Set
Actual Time 7:16 AM CST 5:33 PM CST
Civil Twilight 6:50 AM CST 6:00 PM CST
Nautical Twilight 6:20 AM CST 6:30 PM CST
Astronomical Twilight 5:51 AM CST 6:59 PM CST
Moon 5:05 PM CST (11/27) 6:24 AM CST (11/27)
Length of Visible Light 11h 09m
Length of Day
10h 16m
Waxing Gibbous, 99% of the Moon is Illuminated
Nov 27
Waxing Gibbous
Nov 28
Full
Dec 6
Last Quarter
Dec 13
New
Dec 19
First Quarter

Hourly Weather History & Observations

Time (CST) Temp. Windchill Dew Point Humidity Pressure Visibility Wind Dir Wind Speed Gust Speed Precip Events Conditions
12:15 AM 47.8 °F - 28.4 °F 47% 30.31 in 10.0 mi North 18.4 mph 24.2 mph N/A   Overcast
12:35 AM 46.9 °F - 28.2 °F 48% 30.32 in 10.0 mi North 16.1 mph 21.9 mph N/A   Scattered Clouds
12:55 AM 46.0 °F 39.0 °F 27.7 °F 49% 30.33 in 10.0 mi North 17.3 mph 24.2 mph N/A   Clear
1:15 AM 44.8 °F 38.7 °F 26.8 °F 49% 30.33 in 10.0 mi North 12.7 mph - N/A   Clear
1:35 AM 43.5 °F 37.1 °F 26.4 °F 51% 30.33 in 10.0 mi North 12.7 mph - N/A   Clear
1:55 AM 42.8 °F 36.2 °F 25.5 °F 51% 30.34 in 10.0 mi North 12.7 mph 19.6 mph N/A   Clear
2:15 AM 41.7 °F 36.1 °F 25.3 °F 52% 30.35 in 10.0 mi North 9.2 mph - N/A   Clear
2:35 AM 41.0 °F 34.7 °F 24.8 °F 53% 30.35 in 10.0 mi North 10.4 mph - N/A   Clear
2:55 AM 40.3 °F 34.4 °F 24.3 °F 53% 30.35 in 10.0 mi North 9.2 mph - N/A   Clear
3:15 AM 39.4 °F 33.2 °F 23.7 °F 54% 30.35 in 10.0 mi North 9.2 mph - N/A   Clear
3:35 AM 39.2 °F 32.5 °F 23.2 °F 53% 30.35 in 10.0 mi North 10.4 mph - N/A   Clear
3:55 AM 39.0 °F 31.4 °F 22.6 °F 52% 30.35 in 10.0 mi North 12.7 mph - N/A   Clear
4:15 AM 38.5 °F 30.3 °F 22.1 °F 52% 30.35 in 10.0 mi North 13.8 mph - N/A   Clear
4:35 AM 38.1 °F 29.8 °F 22.5 °F 53% 30.35 in 10.0 mi North 13.8 mph - N/A   Clear
4:55 AM 37.4 °F 29.3 °F 22.6 °F 55% 30.36 in 10.0 mi North 12.7 mph - N/A   Clear
5:35 AM 36.7 °F 28.0 °F 23.0 °F 58% 30.37 in 10.0 mi North 13.8 mph - N/A   Clear
5:55 AM 36.3 °F 30.1 °F 23.2 °F 59% 30.37 in 10.0 mi North 8.1 mph - N/A   Clear
6:15 AM 35.8 °F 28.8 °F 23.4 °F 61% 30.38 in 10.0 mi North 9.2 mph - N/A   Clear
6:35 AM 35.2 °F 27.6 °F 23.5 °F 62% 30.39 in 10.0 mi North 10.4 mph - N/A   Clear
6:55 AM 34.7 °F 28.1 °F 23.5 °F 64% 30.39 in 10.0 mi North 8.1 mph - N/A   Clear
7:15 AM 34.3 °F 27.0 °F 23.5 °F 65% 30.40 in 10.0 mi North 9.2 mph - N/A   Clear
7:35 AM 34.3 °F 26.5 °F 23.5 °F 65% 30.41 in 10.0 mi North 10.4 mph - N/A   Clear
7:55 AM 35.1 °F 26.4 °F 23.7 °F 63% 30.41 in 10.0 mi North 12.7 mph - N/A   Clear
8:15 AM 36.1 °F 28.2 °F 23.9 °F 61% 30.42 in 10.0 mi North 11.5 mph - N/A   Clear
8:35 AM 37.2 °F 27.9 °F 24.1 °F 59% 30.42 in 10.0 mi North 16.1 mph - N/A   Clear
8:55 AM 38.3 °F 30.5 °F 24.4 °F 57% 30.43 in 10.0 mi North 12.7 mph - N/A   Clear
9:15 AM 39.2 °F 31.6 °F 25.0 °F 57% 30.44 in 10.0 mi North 12.7 mph - N/A   Clear
9:55 AM 41.5 °F 35.4 °F 25.5 °F 53% 30.45 in 10.0 mi North 10.4 mph - N/A   Clear
10:15 AM 43.0 °F 37.2 °F 25.7 °F 51% 30.46 in 10.0 mi North 10.4 mph - N/A   Clear
10:35 AM 44.2 °F 38.4 °F 26.1 °F 49% 30.45 in 10.0 mi NNE 11.5 mph - N/A   Clear
10:55 AM 45.9 °F 40.4 °F 26.2 °F 46% 30.44 in 10.0 mi North 11.5 mph 16.1 mph N/A   Clear
11:15 AM 47.1 °F - 26.4 °F 45% 30.44 in 10.0 mi NNW 11.5 mph - N/A   Clear
11:35 AM 48.2 °F - 27.3 °F 44% 30.43 in 10.0 mi North 9.2 mph - N/A   Clear
11:55 AM 49.6 °F - 27.3 °F 42% 30.42 in 10.0 mi North 8.1 mph - N/A   Clear
12:15 PM 50.4 °F - 27.7 °F 42% 30.41 in 10.0 mi North 10.4 mph - N/A   Clear
12:35 PM 51.6 °F - 28.2 °F 41% 30.39 in 10.0 mi North 8.1 mph - N/A   Clear
1:15 PM 53.1 °F - 28.9 °F 40% 30.38 in 10.0 mi Calm Calm - N/A   Clear
1:35 PM 54.1 °F - 29.5 °F 39% 30.37 in 10.0 mi Calm Calm - N/A   Clear
1:55 PM 54.7 °F - 29.3 °F 38% 30.36 in 10.0 mi North 3.5 mph - N/A   Clear
2:15 PM 55.4 °F - 29.3 °F 37% 30.35 in 10.0 mi North 3.5 mph - N/A   Clear
2:35 PM 56.1 °F - 29.3 °F 36% 30.34 in 10.0 mi NNW 6.9 mph - N/A   Clear
2:55 PM 56.5 °F - 29.3 °F 35% 30.32 in 10.0 mi Calm Calm - N/A   Clear
3:15 PM 56.8 °F - 29.1 °F 35% 30.32 in 10.0 mi Calm Calm - N/A   Clear
3:35 PM 57.2 °F - 29.5 °F 35% 30.31 in 10.0 mi Calm Calm - N/A   Clear
3:55 PM 57.4 °F - 29.3 °F 34% 30.31 in 10.0 mi Calm Calm - N/A   Clear
4:15 PM 57.2 °F - 29.5 °F 35% 30.31 in 10.0 mi Calm Calm - N/A   Clear
4:55 PM 56.7 °F - 29.8 °F 36% 30.31 in 10.0 mi ENE 3.5 mph - N/A   Clear
5:15 PM 55.4 °F - 30.9 °F 39% 30.32 in 10.0 mi East 3.5 mph - N/A   Clear
5:35 PM 53.6 °F - 30.2 °F 41% 30.32 in 10.0 mi ESE 4.6 mph - N/A   Clear
5:55 PM 51.8 °F - 29.1 °F 42% 30.32 in 10.0 mi ESE 3.5 mph - N/A   Clear
6:15 PM 50.0 °F - 28.8 °F 44% 30.32 in 10.0 mi Calm Calm - N/A   Clear
6:35 PM 49.5 °F - 30.6 °F 48% 30.33 in 10.0 mi Calm Calm - N/A   Clear
6:55 PM 48.9 °F - 30.9 °F 50% 30.33 in 10.0 mi South 3.5 mph - N/A   Clear
7:35 PM 46.2 °F 45.0 °F 31.5 °F 56% 30.33 in 10.0 mi SW 3.5 mph - N/A   Clear
7:55 PM 43.7 °F - 30.7 °F 60% 30.34 in 10.0 mi Calm Calm - N/A   Clear
8:15 PM 43.7 °F - 31.3 °F 62% 30.34 in 10.0 mi Calm Calm - N/A   Clear
8:55 PM 42.8 °F - 31.1 °F 63% 30.34 in 10.0 mi Calm Calm - N/A   Clear
9:15 PM 41.7 °F - 31.1 °F 66% 30.34 in 10.0 mi Calm Calm - N/A   Clear
9:35 PM 41.9 °F - 31.1 °F 66% 30.33 in 10.0 mi Calm Calm - N/A   Clear
9:55 PM 40.3 °F 38.2 °F 30.7 °F 69% 30.33 in 10.0 mi SSW 3.5 mph - N/A   Clear
10:15 PM 40.3 °F - 31.1 °F 70% 30.33 in 10.0 mi Calm Calm - N/A   Clear
10:35 PM 39.0 °F - 31.1 °F 73% 30.33 in 10.0 mi Calm Calm - N/A   Clear
10:55 PM 37.8 °F - 30.9 °F 76% 30.34 in 10.0 mi Calm Calm - N/A   Clear
11:15 PM 37.4 °F - 30.9 °F 77% 30.33 in 10.0 mi Calm Calm - N/A   Clear
11:35 PM 37.2 °F - 30.9 °F 78% 30.33 in 10.0 mi Calm Calm - N/A   Clear
11:55 PM 36.5 °F 33.9 °F 30.0 °F 77% 30.33 in 10.0 mi SSW 3.5 mph - N/A   Clear